Regional Weather Roundup
Issued by NWS

Home | Current Version | Previous Version | Graphics & Text | Print | Product List | Glossary On
Versions: 1 2 3 4 5 6 7 8 9 10 11 12 13 14 15 16 17 18 19 20 21 22 23 24 25 26 27 28 29 30 31 32 33 34 35 36 37 38 39 40 41 42 43 44 45 46 47 48 49 50
000
ASUS43 KIND 280259
RWRIN

WEATHER ROUNDUP FOR INDIANA
NATIONAL WEATHER SERVICE INDIANAPOLIS IN
1100 PM EDT TUE JUN 27 2017

NOTE: "FAIR" INDICATES FEW OR NO CLOUDS BELOW 12,000 FEET WITH NO
SIGNIFICANT WEATHER AND/OR OBSTRUCTIONS TO VISIBILITY.

* - STATION DOES NOT REPORT WEATHER SUCH AS PRECIPITATION OR FOG.

+ - STATION NOT QUALITY CONTROLLED BY THE NATIONAL WEATHER SERVICE.
    USE DATA WITH CAUTION...ESPECIALLY DEWPOINT AND RELATIVE
    HUMIDITY OBSERVATIONS.

INZ001>003-010>013-019-020-280400-
NORTHWEST INDIANA

CITY           SKY/WX    TMP DP  RH WIND       PRES   REMARKS
GARY /AIRPORT/ PTCLDY    61  48  63 CALM      30.05R
MICHIGAN CITY+ CLEAR     59  48  67 CALM      30.07R
MONTICELLO +   CLEAR     65  49  56 S6        30.07S
RENSSELAER +   CLEAR     61  45  55 CALM      30.08R

$$

LMZ046-743>745-280400-
SOUTHERN LAKE MICHIGAN

STATION/POSITION TIME  TEMP    WIND        PRES    WAVE
                       AIR SEA DIR/SP/G            HT
                 (UTC) (F)     (DEG/KT/KT) (MB)    (FT)
BURNS HARBOR     0240   68     190/  8/ 10 1017.9R
MICHIGAN CITY    0230   67     130/  6/  8   N/A
5NW MICH CITY    0250   67 66  170/  8/ 10   N/A     1

$$

INZ004-005-014>016-021>024-280400-
NORTH CENTRAL INDIANA

CITY           SKY/WX    TMP DP  RH WIND       PRES   REMARKS
GOSHEN         CLEAR     58  45  62 CALM      30.08R
PERU/GRISSOM   CLEAR     58  53  81 S5        30.06R
SOUTH BEND     CLEAR     59  47  64 CALM      30.07R

$$

INZ006>009-017-018-025>027-280400-
NORTHEAST INDIANA

CITY           SKY/WX    TMP DP  RH WIND       PRES   REMARKS
ANGOLA *+      CLEAR     55  46  71 CALM      30.09R
FORT WAYNE     PTCLDY    59  52  77 SW3       30.10R
KENDALLVILLE + CLEAR     59  46  61 CALM      30.09R

$$

INZ028-029-035-036-043>045-051>053-280400-
WEST CENTRAL INDIANA

CITY           SKY/WX    TMP DP  RH WIND       PRES   REMARKS
CRAWFORDSVL +  CLOUDY    55  55 100 CALM      30.10R
GREENCASTLE +  PTCLDY    59  52  77 CALM      30.11R
LAFAYETTE      CLEAR     59  51  75 CALM      30.08R
TERRE HAUTE    CLEAR     61  52  72 CALM      30.09R

$$

INZ030>032-037>040-046>048-054>057-064-065-280400-
CENTRAL INDIANA

CITY           SKY/WX    TMP DP  RH WIND       PRES   REMARKS
INDIANAPOLIS   PTCLDY    64  48  56 S6        30.10R
-EAGLE CREEK   CLEAR     62  50  64 CALM      30.10R
KOKOMO +       CLEAR     61  54  77 S6        30.10R
MT COMFORT *+  CLEAR     61  52  72 SE3       30.11R
SHELBYVILLE    CLEAR     60  50  69 CALM      30.10R

$$

INZ033-034-041-042-049-050-058-059-280400-
EAST CENTRAL INDIANA

CITY           SKY/WX    TMP DP  RH WIND       PRES   REMARKS
MUNCIE         CLEAR     64  48  56 CALM      30.10R
RICHMOND +     CLEAR     55  50  82 CALM      30.13S

$$

INZ060-061-067>069-081>083-085>088-280400-
SOUTHWEST INDIANA

CITY           SKY/WX    TMP DP  RH WIND       PRES   REMARKS
EVANSVILLE     CLEAR     65  55  70 CALM      30.09R
HUNTINGBURG *+ CLEAR     65  53  65 CALM      30.10R

$$

INZ062-063-066-070>080-084-089>092-280400-
SOUTH CENTRAL AND SOUTHEAST INDIANA

CITY           SKY/WX    TMP DP  RH WIND       PRES   REMARKS
BLOOMINGTON    CLEAR     58  50  75 CALM      30.11R
MADISON *+     CLEAR     59  54  82 CALM      30.14R
SEYMOUR +      CLEAR     61  54  77 CALM      30.11R

$$





USA.gov is the U.S. government's official web portal to all federal, state and local government web resources and services.